Location: St. Louis
(38.6270°N, 90.1994°W)
Time: 06:31:40
(UTC-06:00)

Altair - Pass Details

Date: 05 December 2021
Orbit: 1501 x 1683 km, 47.2° (Epoch: 17 January)

Event Time Altitude Azimuth Distance (km) Brightness Sun altitude
Rises 12:40:48 0° 191° (S) 4,847 11.4 27.8°
Reaches altitude 10° 12:44:41 10° 179° (S) 3,836 11.1 27.7°
Maximum altitude 12:52:07 25° 128° (SE) 2,765 9.4 27.3°
Drops below altitude 10° 12:59:21 10° 78° (ENE) 3,736 9.3 26.9°
Sets 13:03:01 0° 66° (ENE) 4,697 9.7 26.7°
